Terminal Aerodrome Forecast
Issued by NWS

Home | Current Version | Previous Version | Text Only | Print | Product List | Glossary On
Versions: 1 2 3 4 5 6 7 8 9 10 11 12 13 14 15 16 17
000
FTUS43 KDTX 251135
TAFDET
TAF
KDET 251135Z 2512/2612 23010KT P6SM SCT025 OVC040
      TEMPO 2512/2513 5SM BR
     FM251600 27014G22KT P6SM BKN025
     FM251900 27015G24KT P6SM SKC
     FM260000 28010KT P6SM SKC=

USA.gov is the U.S. government's official web portal to all federal, state and local government web resources and services.